Weather History for CWZL - November, 2012

Change the Weather History Date:

Sunday, November 4, 2012

  Actual Average Record
Temperature  
Mean Temperature 52 °F -  
Max Temperature 57 °F - - ()
Min Temperature 48 °F - - ()
Degree Days  
Heating Degree Days 12    
Growing Degree Days 2 (Base 50)    
Moisture  
Dew Point 44 °F    
Average Humidity 77    
Maximum Humidity 97    
Minimum Humidity 54    
Precipitation  
Precipitation 0.00 in - - ()
Sea Level Pressure  
Sea Level Pressure 29.53 in    
Wind  
Wind Speed 26 mph ()    
Max Wind Speed 52 mph    
Max Gust Speed 71 mph    
T = Trace of Precipitation, MM = Missing Value Source: Averaged Metar Reports

Daily Weather History Graph

Daily Weather History Graph

Search for Another Location

Airport or City:

Trip Planner

Search our weather history database for the weather conditions in past years. The results will help you decide how hot, cold, wet, or windy it might be!

Date:

Astronomy

Nov. 04, 2012 Rise Set
Actual Time 7:51 AM PST 5:08 PM PST
Civil Twilight 7:13 AM PST 5:45 PM PST
Nautical Twilight 6:32 AM PST 6:26 PM PST
Astronomical Twilight 5:52 AM PST 7:06 PM PST
Moon 9:46 PM PST (11/4) 12:47 PM PST (11/4)
Length of Visible Light 10h 31m
Length of Day
9h 17m
Waning Gibbous, 71% of the Moon is Illuminated
Nov 4
Waning Gibbous
Nov 6
Last Quarter
Nov 13
New
Nov 20
First Quarter
Nov 28
Full

Hourly Weather History & Observations

Time (PST) Temp. Dew Point Humidity Pressure Visibility Wind Dir Wind Speed Gust Speed Precip Events Conditions
12:00 AM 49.1 °F 44.4 °F 84% 29.83 in - SSE 15.0 mph - N/A   Unknown
1:00 AM 48.9 °F 45.5 °F 88% 29.81 in - SSE 19.6 mph - N/A   Unknown
1:00 AM 49.1 °F 46.0 °F 89% 29.80 in - SSE 23.0 mph - N/A   Unknown
2:00 AM 48.7 °F 45.5 °F 89% 29.75 in - SSE 20.7 mph - N/A   Unknown
3:00 AM 48.0 °F 45.5 °F 91% 29.68 in - SSE 23.0 mph - N/A   Unknown
4:00 AM 48 °F 47 °F 93% 29.60 in - SSE 32.2 mph - -  
4:00 AM 48.2 °F 46.6 °F 94% 29.60 in - SSE 32.2 mph 39.1 mph N/A   Unknown
5:00 AM 48.2 °F 47.1 °F 96% 29.53 in - SSE 27.6 mph 33.4 mph N/A   Unknown
6:00 AM 49.6 °F 48.6 °F 96% 29.43 in - SSE 33.4 mph 39.1 mph N/A   Unknown
7:00 AM 50.0 °F 48.9 °F 96% 29.32 in - SSE 42.6 mph 49.5 mph N/A   Unknown
8:00 AM 50.9 °F 50.0 °F 97% 29.24 in - SSE 41.4 mph 48.3 mph N/A   Unknown
9:00 AM 52.2 °F 49.5 °F 91% 29.23 in - SSE 32.2 mph - N/A   Unknown
10:00 AM 57 °F 45 °F 54% 29.23 in - South 46.0 mph - -  
10:00 AM 57.4 °F 44.8 °F 63% 29.23 in - South 46.0 mph 59.8 mph N/A   Unknown
11:00 AM 53.8 °F 42.6 °F 66% 29.26 in - SSW 41.4 mph 62.1 mph N/A   Unknown
12:00 PM 53.2 °F 41.4 °F 64% 29.26 in - SSW 51.8 mph 71.3 mph N/A   Unknown
1:00 PM 51.4 °F 41.0 °F 68% 29.27 in - SSW 50.6 mph 69.0 mph N/A   Unknown
2:00 PM 50.9 °F 41.2 °F 69% 29.31 in - SSW 38.0 mph 54.1 mph N/A   Unknown
3:00 PM 50.7 °F 40.5 °F 68% 29.40 in - SW 36.8 mph 54.1 mph N/A   Unknown
4:00 PM 51 °F 39 °F 54% 29.47 in - SW 40.3 mph - -  
4:00 PM 50.5 °F 39.2 °F 65% 29.47 in - SW 40.3 mph 55.2 mph N/A   Unknown
5:00 PM 49.1 °F 40.8 °F 73% 29.55 in - SW 31.1 mph 46.0 mph N/A   Unknown
6:00 PM 49.6 °F 39.6 °F 68% 29.61 in - SW 29.9 mph 44.9 mph N/A   Unknown
7:00 PM 49.6 °F 39.7 °F 69% 29.68 in - WSW 28.8 mph 41.4 mph N/A   Unknown
8:00 PM 49.3 °F 39.7 °F 70% 29.74 in - SW 21.9 mph 41.4 mph N/A   Unknown
9:00 PM 49.3 °F 39.7 °F 70% 29.81 in - SW 13.8 mph 25.3 mph N/A   Unknown
10:00 PM 48 °F 40 °F 66% 29.86 in - SSW 10.4 mph - -  
10:00 PM 48.2 °F 40.3 °F 74% 29.86 in - SSW 10.4 mph 18.4 mph N/A   Unknown